#timestamp,LO_Frequency,Hit,StdDev 
1515639615.4,286047001.8,N
1515639635.2,286046999.8,N
1515639655.1,286046999.7,N
1515639656.0,286046999.7,N
1515639675.8,286047002.7,N
1515639695.6,286047002.5,N
1515639715.5,286047002.8,N
1515639735.3,286046999.9,N
1515639755.2,286047002.8,N
1515639775.9,286047001.5,N
1515639795.7,286047001.3,N
1515639815.6,286047001.8,N
1515639835.4,286047001.9,N
1515639855.3,286047002.3,N
1515639875.1,286047002.8,N
1515639876.0,286047002.8,N
1515639895.8,286046999.7,N
1515639915.7,286047000.2,N
1515639935.5,286046999.9,N
1515639955.4,286047000.1,N
1515639975.2,286047002.2,N
1515639995.0,286047002.0,N
1515639995.9,286047002.0,N
1515640015.8,286047004.4,N
1515640035.6,286047001.8,N
1515640055.4,286047002.4,N
1515640075.3,286047002.7,N
1515640095.1,286046999.8,N
1515640115.9,286047001.0,N
1515640135.7,286047000.9,N
1515640155.5,286047002.6,N
1515640175.4,286047001.6,N
1515640195.2,286047001.9,N
1515640215.0,286047002.1,N
1515640216.0,286047002.1,N
1515640235.8,286047001.4,N
1515640255.6,286047002.1,N
1515640275.5,286047001.6,N
1515640295.3,286046999.8,N
1515640315.1,286047002.8,N
1515640335.9,286047002.4,N
1515640355.7,286047000.0,N
1515640375.6,286047002.0,N
1515640395.4,286047004.1,Y
1515640415.2,286047000.1,P
1515640435.1,286047000.2,N
1515640436.0,286047000.2,N
1515640455.8,286047000.4,N
1515640475.6,286047001.2,N
1515640495.5,286047000.8,N
1515640515.3,286046998.6,N
1515640535.2,286047000.4,N
1515640555.9,286047001.2,N
1515640575.7,286047001.2,N
1515640595.6,286047000.9,N
1515640615.4,286047000.0,N
1515640635.2,286047000.2,N
1515640655.1,286047001.2,N
1515640656.0,286047001.2,N
1515640675.8,286047002.3,Y
1515640695.7,286047000.2,P
1515640715.5,286047002.4,P
1515640735.3,286047000.4,N
1515640755.2,286046999.9,N
1515640775.0,286047002.7,Y
1515640775.9,286047002.7,P
1515640795.8,286047000.4,N
1515640815.6,286047001.0,N
1515640835.4,286047000.6,N
1515640855.3,286047001.1,N
1515640875.1,286046998.2,N
1515640895.8,286047001.2,N
1515640915.7,286046998.8,N
1515640935.5,286046996.8,N
1515640955.4,286046999.1,N
1515640975.2,286046996.9,N
1515640995.0,286046999.5,N
1515640995.9,286046999.5,N
1515641015.8,286046996.9,N
1515641035.6,286046999.0,N
1515641055.5,286046999.6,N
1515641075.3,286046999.6,N
1515641095.1,286046996.9,N
1515641115.9,286046998.6,N
1515641135.7,286046999.3,N
1515641155.6,286046999.4,N
1515641175.4,286046999.1,N
1515641195.2,286046997.2,N
1515641215.1,286046997.0,N
1515641216.0,286046997.0,N
1515641235.8,286046998.6,N
1515641255.6,286046998.3,N
1515641275.5,286046998.8,N
1515641295.3,286046998.3,N
1515641315.2,286046996.9,N
1515641335.9,286046996.8,N
1515641355.7,286046997.1,N
1515641375.6,286046998.7,N
1515641395.4,286047000.6,N
1515641415.2,286047000.5,N
1515641435.1,286047000.0,N
1515641436.0,286047000.0,N
1515641455.8,286047000.3,N
1515641475.7,286047001.1,N
1515641495.5,286046998.7,N
1515641515.3,286046996.6,N
1515641535.2,286046998.2,N
1515641555.0,286046999.2,N
1515641555.9,286046999.2,N
1515641575.7,286046997.3,N
1515641595.6,286046997.8,N
1515641615.4,286046997.1,N
1515641635.3,286046998.7,N
1515641655.1,286046998.7,N
1515641656.0,286046998.7,N
1515641675.8,286047000.6,N
1515641695.7,286047000.9,N
1515641715.5,286046998.2,N
1515641735.4,286046998.4,N
1515641755.2,286046997.0,N
1515641775.0,286046997.4,N
1515641775.9,286046997.4,N
1515641795.8,286046996.8,N
1515641815.6,286046999.3,N
1515641835.4,286047001.2,N
1515641855.3,286046999.6,N
1515641875.1,286046999.1,N
1515641895.9,286046998.8,N
1515641915.7,286046998.6,N
1515641935.5,286046999.5,N
1515641955.4,286046998.4,N
1515641975.2,286046998.6,N
1515641995.0,286046998.6,N
1515641995.9,286046998.6,N
1515642015.8,286046999.1,N
1515642035.6,286046996.6,Y
1515642055.5,286047000.9,P
1515642075.3,286046998.6,N
1515642095.1,286046998.9,N
1515642115.9,286046998.9,N
1515642135.7,286046996.5,Y
1515642155.6,286046998.1,P
1515642175.4,286047002.4,P
1515642195.2,286047002.6,N
1515642215.1,286047001.8,N
1515642216.0,286047001.8,N
1515642235.8,286047002.7,N
1515642255.7,286047000.1,N
1515642275.5,286047002.8,N
1515642295.3,286047001.9,N
1515642315.2,286047001.3,N
1515642335.0,286047001.5,N
1515642335.9,286047001.5,N
1515642355.8,286047002.0,N
1515642375.3,286047001.7,N
1515642395.2,286047002.1,N
1515642415.0,286047000.5,N
1515642415.9,286047000.5,N
1515642435.8,286047000.5,N
1515642455.6,286047000.1,N
1515642475.4,286047000.7,N
1515642495.3,286047000.9,N
1515642515.1,286046998.1,N
1515642535.8,286047001.0,N
1515642555.7,286046999.8,N
1515642575.5,286047002.5,N
1515642595.4,286047002.3,N
1515642615.2,286047000.2,N
1515642635.0,286047002.4,N
1515642635.9,286047002.4,N
1515642655.8,286047000.2,N
1515642675.6,286047002.7,N
1515642695.5,286047000.9,N
1515642715.3,286047002.6,N
1515642735.1,286047001.4,N
1515642755.9,286047003.5,Y
1515642775.7,286047001.9,P
1515642795.5,286047001.4,P
1515642815.4,286047002.2,P
1515642835.2,286047001.6,Y
1515642855.1,286047000.9,P
1515642856.0,286047000.9,N
1515642875.8,286047002.3,P
1515642895.6,286047000.3,N
1515642915.5,286047001.1,N
1515642935.3,286047000.8,N
1515642955.1,286047000.5,N
1515642975.9,286047000.9,N
1515642995.7,286047000.5,N
1515643015.6,286047000.6,N
1515643035.4,286047000.1,N
1515643055.2,286047001.5,N
1515643075.1,286047000.1,N
1515643076.0,286047000.1,N
1515643095.8,286047000.7,N
1515643115.6,286046999.7,N
1515643135.5,286046999.7,N
1515643155.3,286046999.9,N
1515643175.2,286046999.9,N
1515643195.9,286047000.9,N
